Flag for Afghanistan Weather past 2 weeks in Kabul, Afghanistan

Now
45 °F

Passing clouds.


Feels Like: 45 °F
Forecast: 14 / 41 °F
Wind: No wind

Location: Peshawar Airport

Current Time: Jan 29, 2015 at 2:48:27 AM

Latest Report: Jan 29, 2015 at 1:30 AM


Visibility: 2 mi

Pressure: 30.04 "Hg

Humidity: 71%

Dew point: 36 °F

Location of KabulLocation

Historic Weather in Kabul — Graph

°F

Kabul temperature yesterday

Maximum temperature yesterday: 61 °F (at 12:30 PM)
Minimum temperature yesterday: 39 °F (at 6:30 AM)
Average temperature yesterday: 50 °F

Past Weeks' High & Low Weather Summary

 TemperatureHumidityPressure
High72 °F (Jan 17, 2:30 PM)100% (Jan 21, 5:30 PM)30.27 "Hg (Jan 21, 5:30 PM)
Low39 °F (Jan 28, 6:30 AM)27% (Jan 17, 2:30 PM)29.89 "Hg (Jan 19, 2:30 PM)
Average53 °F67%30.13 "Hg
* Reported Jan 14 1:30 AM — Jan 29 1:30 AM, Kabul, Weather by CustomWeather, © 2014

Note: Actual official high and low records may vary slightly from our data, if they occured in-between our weather recording intervals... More about our weather records

Advertising

Kabul weather history for previous 24 hours

 ConditionsComfort  
Time TempWeatherWind HumidityBarometerVisibility
1:30 AM
Jan 29
45 °FPassing clouds.No wind71%30.04 "Hg2 mi
12:30 AM46 °FCool.N/A66%30.01 "HgN/A
11:30 PM
Jan 28
46 °FPassing clouds.No wind66%30.04 "Hg2 mi
10:30 PM48 °FHaze.No wind62%30.04 "Hg2 mi
9:30 PM48 °FHaze.5 mph62%30.04 "Hg2 mi
8:30 PM50 °FPassing clouds.7 mph58%30.01 "Hg2 mi
7:30 PM52 °FCool.N/A54%30.01 "HgN/A
6:30 PM54 °FCool.N/A47%30.01 "HgN/A
5:30 PM57 °FRefreshingly cool.N/A39%30.01 "HgN/A
4:30 PM61 °FRefreshingly cool.N/A29%30.01 "HgN/A
3:30 PM61 °FRefreshingly cool.N/A27%30.01 "HgN/A
2:30 PM61 °FRefreshingly cool.N/A29%30.01 "HgN/A
1:30 PM61 °FRefreshingly cool.N/A29%30.04 "HgN/A
12:30 PM61 °FPartly sunny.No wind36%30.09 "Hg3 mi
11:30 AM59 °FHaze.No wind42%30.18 "Hg3 mi
10:30 AM57 °FHaze.No wind48%30.15 "Hg3 mi
9:30 AM52 °FLight snow. Cloudy.N/A58%30.15 "HgN/A
8:30 AM43 °FHaze.No wind71%30.15 "Hg2 mi
7:30 AM39 °FChilly.N/A93%30.12 "HgN/A
6:30 AM39 °FChilly.N/A93%30.12 "HgN/A
5:30 AM41 °FQuite cool.N/A87%30.12 "HgN/A
4:30 AM41 °FQuite cool.N/A87%30.15 "HgN/A
3:30 AM43 °FQuite cool.N/A76%30.15 "HgN/A
2:30 AM43 °FQuite cool.N/A76%30.18 "HgN/A
Weather by CustomWeather, © 2014

See weather overviewHow to use our weather pages